Wind_Speed
22 23 24 25 25 26 27 28 29 30 31 31 33 34 35 36 36 36 36 35 35 36 36 36 37 39 40 41 42 43 44 45 46 47 48 47 47 47 46 46 45 45 45
24 25 26 27 28 29 29 30 31 32 33 35 36 37 38 38 38 38 38 37 37 37 37 37 37 38 39 40 41 43 44 45 46 46 48 48 47 47 47 47 46 46 45
26 27 28 29 30 30 31 32 33 35 36 38 39 40 40 40 40 40 39 39 38 37 37 37 37 38 39 40 40 42 43 44 46 46 47 48 48 48 48 46 46 46 47
28 29 30 31 32 32 33 35 36 37 39 40 42 42 42 43 42 41 40 39 38 37 37 36 36 37 37 39 40 41 42 44 45 46 48 49 49 49 49 48 46 47 47
30 31 31 32 33 34 35 37 38 40 41 43 44 44 44 44 43 42 41 39 38 37 36 36 36 36 37 38 39 40 42 43 44 46 47 49 50 50 50 50 48 47 47
31 32 32 33 34 35 37 39 41 42 44 45 46 46 46 45 44 42 40 38 37 36 36 35 35 35 36 37 38 40 41 43 44 46 47 49 50 51 52 52 51 49 47
32 33 33 34 35 37 40 42 43 44 46 47 47 47 46 45 43 41 39 37 36 35 35 35 35 35 36 36 37 39 41 42 44 46 47 49 50 51 52 53 53 50 48
33 33 34 35 37 40 43 45 46 47 48 49 48 47 45 43 41 39 37 35 34 34 34 34 35 35 36 36 37 38 40 41 43 46 47 49 52 53 53 53 53 52 51
34 34 35 37 40 43 45 47 48 49 50 50 48 46 43 41 40 38 36 34 33 33 33 34 34 33 34 35 36 36 38 40 43 45 47 49 52 53 54 54 54 53 52
35 36 38 40 42 45 48 49 50 50 50 49 47 44 42 40 38 37 35 33 33 33 33 33 32 31 32 33 34 36 37 39 42 44 46 49 51 54 56 56 56 56 54
37 38 41 43 45 48 50 51 51 51 50 48 45 42 40 38 36 35 33 32 32 32 31 31 30 30 30 32 33 34 35 38 41 43 46 48 50 53 56 57 57 57 56
39 42 44 46 49 51 52 52 53 53 50 47 43 40 38 37 35 33 32 31 31 31 30 29 29 29 29 30 30 32 33 35 37 40 43 46 49 51 54 57 58 58 58
43 45 47 49 50 53 54 54 54 53 49 45 42 39 37 35 34 33 32 31 31 30 29 28 28 28 28 28 28 29 30 31 34 37 40 43 47 50 53 56 58 60 60
46 48 49 51 52 55 55 55 53 51 47 44 41 38 36 34 34 32 31 30 30 29 28 27 27 26 26 25 26 26 27 28 30 33 37 40 44 47 51 54 56 59 60
49 50 52 54 55 56 56 55 52 49 45 42 40 37 35 33 32 31 31 30 29 28 27 26 25 24 24 24 24 24 25 26 28 30 33 37 41 44 48 52 54 58 60
52 53 54 55 56 57 55 52 49 46 43 40 39 37 34 32 31 30 30 29 28 28 26 25 24 24 24 23 22 23 23 24 25 28 31 34 38 42 45 49 52 55 58
55 56 56 56 57 56 53 49 47 45 41 39 38 36 34 32 31 30 29 28 28 27 25 24 23 22 22 21 21 21 20 21 22 25 27 31 35 40 43 46 49 54 57
57 57 57 57 56 53 50 47 45 43 40 37 36 35 33 32 31 30 28 27 27 25 24 23 22 21 20 19 19 20 19 19 20 21 24 26 31 36 41 44 47 50 55
59 58 56 54 52 49 47 45 43 41 38 35 34 34 33 31 30 28 28 27 26 24 23 22 21 20 19 18 18 18 18 18 17 18 20 23 27 32 38 42 44 47 51
58 56 54 51 49 47 45 43 42 38 35 34 33 32 31 30 28 27 26 25 25 24 22 21 20 19 18 17 16 16 16 16 16 16 18 21 25 29 34 39 42 44 48
57 54 51 49 47 45 43 41 38 35 33 31 31 30 29 28 27 25 25 24 24 23 21 21 20 19 17 16 16 16 16 16 16 16 17 20 24 27 31 36 39 42 45
55 52 49 47 45 42 40 38 35 32 30 29 28 28 27 27 25 24 24 24 22 21 20 19 18 16 15 14 14 14 14 15 15 16 18 19 23 26 28 33 38 40 42
53 50 47 44 42 39 37 35 32 29 28 27 25 25 25 24 24 23 23 22 21 19 18 16 15 14 12 11 10 11 12 14 15 16 17 19 21 25 27 31 35 37 40
51 47 45 42 40 37 35 32 29 27 25 24 23 23 23 22 22 23 22 21 20 18 16 15 13 12 10 9 10 10 11 12 14 15 17 19 21 24 26 29 32 36 39
48 44 42 39 36 33 31 29 26 24 23 21 21 21 21 20 21 22 20 19 18 17 15 13 12 11 9 8 8 7 8 11 13 16 17 19 22 24 25 28 31 33 37
43 40 38 35 31 29 27 25 23 21 20 20 20 20 19 19 19 19 18 17 16 15 13 12 10 9 8 7 6 7 8 10 12 16 18 20 22 25 27 28 30 31 34
Wind_Direction
323 324 324 323 322 321 320 319 318 317 317 315 314 313 312 311 309 306 303 299 295 291 286 281 276 271 267 262 258 254 250 247 244 242 241 239 238 237 236 235 234 232 231
325 325 325 324 323 322 321 320 319 318 317 316 315 313 312 310 308 306 303 299 295 291 287 282 276 271 267 263 258 254 251 247 244 241 240 239 238 236 236 235 233 232 231
326 326 325 324 324 324 323 321 320 319 318 317 315 314 312 310 307 305 303 299 295 291 287 282 277 272 267 263 259 255 251 248 244 241 239 238 238 236 235 234 233 232 232
326 326 325 325 324 323 323 322 321 320 319 317 315 313 311 309 307 305 303 299 295 291 288 283 278 272 268 263 259 255 251 248 245 241 239 238 237 236 234 233 232 231 231
326 326 325 324 324 324 323 323 322 321 319 317 315 313 311 309 307 305 303 299 296 292 289 284 279 273 268 264 260 255 252 248 245 242 239 238 237 236 235 232 231 230 230
324 325 325 324 324 324 324 323 322 321 319 318 316 313 311 308 307 305 303 299 296 293 290 286 281 276 270 266 261 257 252 248 245 242 239 237 237 236 235 233 231 229 229
322 323 323 323 323 323 323 323 322 321 320 319 317 315 311 308 306 305 302 299 296 294 291 288 284 279 274 268 263 258 253 249 246 242 239 237 236 235 235 234 231 229 228
320 321 322 322 322 323 323 323 322 322 321 320 318 316 312 309 307 305 303 300 297 294 293 290 286 281 276 270 265 260 254 250 246 243 240 237 235 234 233 233 231 228 227
318 319 320 322 323 324 324 324 323 323 322 320 319 316 313 309 307 306 304 301 297 295 294 292 287 283 278 272 267 262 256 251 247 244 241 238 236 233 232 231 230 228 226
316 317 319 321 324 326 325 325 325 324 323 322 319 316 313 310 309 306 304 302 299 297 295 292 288 283 279 275 269 263 258 253 249 245 242 239 236 233 231 229 228 226 225
315 316 318 321 323 325 326 326 325 325 324 323 320 317 314 311 310 307 305 303 301 299 296 293 288 284 282 277 272 266 260 255 251 246 242 239 236 233 231 229 227 226 224
315 316 318 319 321 323 324 325 325 325 325 323 320 317 314 312 311 309 306 304 303 301 297 293 289 286 284 280 275 268 262 256 251 246 242 238 235 233 230 228 227 225 223
315 316 316 317 319 321 323 323 324 325 325 323 320 317 315 314 312 311 308 306 305 302 299 294 292 289 286 282 276 271 263 257 252 246 242 238 235 232 229 228 226 224 223
312 313 314 315 317 319 321 322 323 324 324 322 320 317 316 315 314 312 310 308 307 304 301 298 293 290 288 281 277 272 265 259 254 248 242 238 234 231 228 226 225 223 221
310 310 313 315 316 317 319 320 321 322 322 321 319 317 316 315 314 312 311 309 307 305 303 300 296 292 289 283 278 273 267 261 256 248 242 237 232 228 226 224 223 222 221
309 309 311 313 314 315 316 318 319 320 320 319 318 316 315 315 314 312 311 310 308 306 303 302 299 294 289 282 277 274 269 262 257 250 242 236 231 227 224 223 222 219 218
307 308 310 311 312 313 314 315 316 317 317 316 316 316 316 316 316 314 312 312 311 309 305 304 303 298 290 281 276 274 269 263 256 249 241 234 229 225 222 221 219 218 216
305 307 307 308 309 310 311 313 314 315 315 314 314 315 316 317 316 315 313 313 314 312 308 305 303 301 294 282 274 272 269 264 258 249 240 232 226 222 219 217 217 215 214
303 304 305 306 306 307 309 310 310 311 312 312 312 313 315 317 317 316 315 315 316 315 311 306 303 301 295 284 274 270 265 262 257 247 236 228 221 217 215 214 214 213 213
302 302 303 303 304 305 306 306 306 308 310 310 310 311 314 316 317 316 316 315 315 315 311 306 302 299 294 284 273 267 261 256 254 247 235 224 217 213 212 212 212 212 211
300 300 300 300 300 301 302 302 303 304 306 307 308 310 312 315 316 317 317 316 316 314 311 307 303 299 292 284 274 265 257 251 246 238 228 218 212 209 210 209 210 210 209
298 298 297 297 297 298 299 299 299 300 302 303 306 308 311 314 316 316 317 318 318 316 313 310 307 302 292 284 276 263 252 243 236 230 223 216 209 207 209 208 207 206 205
295 295 294 294 294 294 294 294 294 296 298 300 303 307 310 313 314 316 318 317 317 317 315 311 310 307 296 286 277 262 249 236 229 226 218 211 208 206 204 204 204 204 203
292 291 290 290 289 289 289 289 290 292 294 296 300 304 308 310 312 315 317 317 316 314 313 311 310 309 300 287 277 266 251 233 223 217 212 207 205 203 199 198 199 201 202
288 287 285 284 283 283 283 284 285 287 289 292 297 301 304 306 311 315 317 318 318 316 312 308 306 308 303 289 276 260 242 229 218 211 206 203 201 199 196 194 195 196 199
284 281 280 278 277 276 276 277 279 282 285 289 293 297 300 304 310 316 319 321 322 322 320 315 308 303 301 292 276 256 237 227 216 207 203 200 198 196 195 195 195 196 198
Height
5825 5821 5817 5813 5808 5804 5800 5795 5791 5786 5782 5777 5773 5768 5763 5759 5754 5750 5746 5742 5739 5735 5732 5730 5728 5727 5726 5726 5727 5729 5731 5734 5737 5740 5743 5747 5751 5756 5760 5764 5769 5774 5779
5820 5816 5811 5807 5802 5797 5793 5788 5784 5779 5774 5769 5764 5759 5754 5749 5744 5739 5735 5731 5727 5723 5720 5718 5716 5714 5713 5713 5714 5715 5718 5720 5724 5728 5731 5735 5739 5744 5749 5754 5759 5763 5768
5814 5810 5805 5800 5796 5791 5786 5781 5776 5771 5766 5760 5755 5749 5744 5738 5733 5728 5723 5719 5714 5711 5708 5705 5703 5701 5701 5700 5701 5702 5705 5707 5711 5715 5719 5723 5728 5733 5738 5743 5748 5754 5758
5808 5804 5799 5794 5789 5784 5779 5774 5769 5763 5757 5751 5745 5739 5733 5727 5721 5716 5711 5706 5702 5698 5695 5692 5690 5689 5688 5688 5688 5690 5692 5694 5698 5702 5706 5710 5715 5720 5726 5732 5738 5744 5748
5802 5797 5792 5787 5782 5777 5772 5766 5761 5754 5748 5742 5735 5729 5722 5716 5710 5704 5699 5694 5689 5685 5682 5680 5678 5676 5675 5675 5676 5677 5679 5682 5685 5689 5694 5698 5703 5708 5714 5721 5727 5733 5738
5796 5791 5786 5780 5775 5770 5764 5758 5752 5745 5739 5732 5725 5718 5711 5704 5698 5692 5686 5682 5677 5673 5670 5667 5665 5664 5663 5662 5663 5664 5666 5668 5672 5676 5680 5685 5691 5696 5702 5708 5715 5722 5729
5789 5784 5779 5773 5768 5762 5756 5750 5743 5736 5728 5721 5713 5706 5699 5692 5686 5680 5674 5670 5665 5661 5658 5655 5653 5651 5650 5649 5650 5651 5652 5655 5658 5662 5667 5672 5678 5684 5690 5696 5703 5710 5718
5781 5776 5771 5766 5760 5754 5747 5740 5733 5725 5718 5710 5702 5694 5687 5680 5674 5668 5663 5659 5654 5650 5647 5644 5641 5638 5637 5636 5636 5637 5639 5641 5644 5648 5654 5659 5663 5669 5676 5683 5690 5699 5707
5774 5769 5763 5758 5751 5745 5738 5730 5723 5715 5707 5698 5690 5683 5676 5669 5663 5658 5652 5648 5644 5640 5636 5633 5629 5627 5625 5623 5623 5624 5626 5627 5630 5634 5639 5644 5650 5657 5663 5671 5679 5687 5695
5766 5760 5755 5749 5742 5735 5728 5720 5712 5704 5696 5687 5679 5671 5665 5658 5652 5647 5642 5638 5633 5629 5625 5621 5618 5616 5613 5611 5611 5611 5612 5614 5616 5620 5625 5630 5636 5643 5650 5658 5666 5674 5683
5757 5752 5746 5739 5733 5726 5718 5710 5702 5694 5685 5677 5669 5661 5654 5648 5643 5637 5632 5628 5623 5619 5614 5611 5607 5605 5602 5600 5599 5599 5599 5600 5602 5606 5610 5616 5622 5628 5636 5644 5653 5662 5671
5748 5742 5736 5729 5723 5715 5708 5699 5691 5683 5675 5666 5659 5651 5645 5639 5633 5628 5623 5618 5613 5609 5604 5601 5597 5594 5592 5589 5587 5587 5587 5587 5589 5592 5597 5602 5608 5615 5622 5631 5640 5649 5658
5738 5732 5725 5719 5712 5704 5697 5689 5680 5672 5664 5657 5649 5642 5635 5629 5624 5619 5613 5609 5604 5599 5595 5591 5588 5584 5581 5579 5577 5575 5575 5575 5577 5580 5584 5589 5594 5600 5608 5617 5626 5635 5645
5727 5721 5715 5708 5701 5693 5685 5677 5670 5662 5654 5647 5640 5633 5627 5621 5615 5610 5604 5599 5594 5590 5586 5582 5578 5575 5572 5569 5567 5565 5564 5565 5566 5568 5571 5575 5581 5587 5595 5603 5613 5622 5633
5716 5710 5703 5697 5690 5682 5675 5667 5659 5652 5644 5638 5631 5625 5619 5613 5607 5601 5596 5591 5586 5582 5577 5573 5570 5566 5563 5561 5558 5556 5555 5555 5555 5557 5560 5564 5569 5575 5582 5591 5600 5610 5620
5705 5699 5692 5685 5678 5671 5664 5656 5648 5642 5635 5629 5622 5616 5610 5605 5599 5593 5588 5583 5578 5573 5569 5565 5561 5558 5555 5553 5550 5549 5547 5547 5547 5547 5550 5553 5558 5564 5571 5579 5588 5598 5608
5693 5686 5680 5673 5666 5659 5652 5646 5639 5632 5626 5620 5613 5607 5602 5596 5591 5585 5580 5575 5570 5565 5561 5557 5553 5550 5547 5545 5543 5541 5540 5539 5539 5539 5541 5544 5548 5554 5561 5568 5577 5586 5597
5680 5674 5667 5661 5654 5647 5641 5635 5628 5622 5616 5610 5605 5599 5593 5588 5582 5577 5572 5567 5562 5557 5553 5549 5546 5543 5540 5537 5536 5535 5534 5533 5532 5532 5533 5535 5539 5545 5552 5559 5568 5577 5587
5666 5660 5654 5648 5642 5636 5630 5624 5618 5613 5607 5602 5596 5591 5585 5580 5575 5570 5564 5560 5555 5551 5546 5543 5539 5536 5533 5531 5529 5528 5527 5527 5526 5526 5527 5529 5532 5537 5544 5551 5560 5568 5577
5652 5646 5640 5634 5629 5624 5619 5613 5608 5604 5599 5594 5588 5583 5578 5573 5568 5563 5558 5553 5549 5544 5540 5536 5533 5530 5527 5525 5523 5522 5522 5522 5521 5521 5522 5524 5527 5532 5538 5545 5553 5561 5570
5636 5631 5626 5621 5616 5611 5607 5603 5598 5594 5590 5585 5581 5576 5571 5567 5562 5557 5552 5548 5543 5538 5534 5530 5526 5523 5521 5519 5517 5517 5516 5516 5517 5517 5518 5520 5523 5528 5533 5539 5547 5555 5563
5620 5616 5611 5607 5603 5599 5596 5592 5588 5585 5581 5577 5573 5569 5565 5560 5556 5551 5547 5542 5537 5532 5528 5524 5520 5517 5515 5513 5512 5511 5511 5511 5512 5513 5515 5517 5520 5523 5528 5534 5541 5549 5557
5604 5600 5597 5594 5590 5587 5584 5581 5579 5576 5573 5569 5566 5562 5558 5554 5550 5546 5541 5536 5532 5527 5523 5519 5516 5513 5510 5509 5507 5506 5506 5507 5508 5509 5511 5514 5517 5520 5525 5530 5536 5544 5552
5588 5585 5582 5580 5577 5575 5573 5571 5569 5567 5565 5562 5559 5555 5552 5548 5544 5540 5536 5531 5527 5522 5518 5515 5512 5509 5506 5505 5503 5502 5502 5503 5504 5506 5508 5510 5514 5517 5522 5527 5533 5540 5547
5571 5569 5567 5566 5565 5563 5562 5561 5560 5558 5557 5554 5552 5549 5546 5543 5539 5535 5530 5526 5522 5518 5514 5511 5508 5506 5503 5501 5500 5499 5499 5500 5501 5503 5505 5508 5511 5515 5520 5525 5530 5536 5543
5554 5553 5552 5552 5552 5552 5552 5552 5551 5550 5549 5547 5545 5543 5540 5537 5534 5530 5526 5522 5518 5514 5511 5507 5505 5502 5500 5499 5498 5497 5497 5498 5498 5500 5502 5505 5509 5513 5518 5523 5528 5534 5540